Location: Hysolar-Haus
(48.7436°N, 9.0965°E)
Time: 11:35:19
(UTC+00:00)

Explorer 7 - Pass Details

Date: 20 November 2019
Orbit: 485 x 680 km, 50.3° (Epoch: 14 December)

Event Time Altitude Azimuth Distance (km) Brightness Sun altitude
Exits shadow 04:17:56 50° 179° (S) 684 7.2 -22.9°
Drops below altitude 10° 04:21:20 10° 130° (SE) 1,743 10.1 -22.4°
Sets 04:23:29 0° 125° (SE) 2,602 11.2 -22.0°
